Regional Weather Roundup
Issued by NWS Upton, NY

Current Version | Previous Version | Graphics & Text | Print | Product List | Glossary Off
Versions: 1 2 3 4 5 6 7 8 9 10 11 12 13 14 15 16 17 18 19 20 21 22 23 24 25 26 27 28 29 30 31 32 33 34 35 36 37 38 39 40 41 42 43 44 45 46 47 48 49 50
000 ASUS41 KOKX 021208 RWROKX REGIONAL WEATHER ROUNDUP NATIONAL WEATHER SERVICE NEW YORK NY 800 AM EDT THU JUL 02 2015 NOTE: "FAIR" INDICATES FEW OR NO CLOUDS BELOW 12,000 FEET WITH NO SIGNIFICANT WEATHER AND/OR OBSTRUCTIONS TO VISIBILITY. NYZ071-072-176-178-NJZ106-104-021300- NEW YORK CITY METRO AREA CITY SKY/WX TMP DP RH WIND PRES REMARKS CENTRAL PARK MOSUNNY 71 57 61 CALM 29.93R LAGUARDIA APRT PTSUNNY 71 58 63 NW6 29.89S KENNEDY INTL PTSUNNY 75 56 51 NW5 29.91R NEWARK/LIBERTY PTSUNNY 72 57 59 N6 29.90S BRNX BOT. GARD N/A 72 59 64 E2 29.91R TETERBORO MOSUNNY 70 57 63 NW3 29.90R $$ NYZ177-179-078>081-021300- LONG ISLAND NEW YORK CITY SKY/WX TMP DP RH WIND PRES REMARKS FARMINGDALE MOSUNNY 73 60 63 NW3 29.90R ISLIP PTSUNNY 72 60 66 N3 29.89R SHIRLEY SUNNY 73 62 68 N6 29.90R WESTHAMPTON SUNNY 72 62 71 N6 29.91R MONTAUK POINT N/A 72 63 73 NW5 29.92R $$ NYZ052-065-067-021300- HUDSON VALLEY CITY SKY/WX TMP DP RH WIND PRES REMARKS WHITE PLAINS MOSUNNY 69 59 70 NW3 29.90R NEWBURGH NOT AVBL MONTGOMERY PTSUNNY 67 59 75 CALM 29.91R POUGHKEEPSIE PTSUNNY 67 60 78 CALM 29.90R ALBANY PTSUNNY 65 56 72 W8 29.91R $$ NJZ001-105-106-008-010-013-015-019>022-104-021300- NEW JERSEY CITY SKY/WX TMP DP RH WIND PRES REMARKS NEWARK/LIBERTY PTSUNNY 72 57 59 N6 29.90S TETERBORO MOSUNNY 70 57 63 NW3 29.90R CALDWELL MOSUNNY 68 60 75 CALM 29.91S MORRISTOWN MOSUNNY 70 68 94 CALM 29.92R SOMERVILLE MOSUNNY 64 61 90 CALM 29.90R FOG SUSSEX MOSUNNY 62 60 93 CALM 29.92R ANDOVER N/A 63 61 93 CALM 29.93R TRENTON PTSUNNY 68 61 78 N3 29.91R MILLVILLE MOSUNNY 72 69 90 CALM 29.90S FOG ATLANTIC CITY MOSUNNY 72 68 87 N3 29.90R WRIGHTSTOWN MOSUNNY 68 65 92 CALM 29.89R TOMS RIVER PTSUNNY 66 63 88 CALM 29.91S BELMAR MOSUNNY 68 61 77 CALM 29.91R $$ PAZ047>061-062-071-021300- EASTERN PENNSYLVANIA CITY SKY/WX TMP DP RH WIND PRES REMARKS PHILADELPHIA CLOUDY 72 61 68 N3 29.91R ALLENTOWN SUNNY 67 61 81 CALM 29.92R SCRANTON PTSUNNY 63 57 81 NE3 29.94R $$ CTZ002-004>006-009-010-012-RIZ004-006-007-MAZ004-011-015-021300- SOUTHERN NEW ENGLAND IN CT CITY SKY/WX TMP DP RH WIND PRES REMARKS BRADLEY INTL PTSUNNY 68 58 70 W6 29.89R HARTFORD MOSUNNY 69 57 65 SW7 29.89S DANBURY MOSUNNY 66 58 75 CALM 29.92R WTRBRY/OXFORD MOSUNNY 64 55 72 N3 29.92R BRIDGEPORT MOSUNNY 69 61 75 CALM 29.90R MERIDEN MOSUNNY 68 61 78 CALM 29.90R NEW HAVEN MOSUNNY 70 60 70 N5 29.89S CHESTER FAIR 68 61 77 N5 29.91R GROTON SUNNY 71 59 65 N6 29.90R WILLIMANTIC MOSUNNY 65 59 81 CALM 29.90R IN RI CITY SKY/WX TMP DP RH WIND PRES REMARKS PROVIDENCE MOSUNNY 70 59 68 W6 29.89S BLOCK ISLAND SUNNY 72 61 68 NW5 29.90R WESTERLY SUNNY 70 61 73 W3 29.90R IN MA CITY SKY/WX TMP DP RH WIND PRES REMARKS BOSTON MOSUNNY 69 57 65 W10G17 29.87R WORCESTER MOSUNNY 64 56 75 W9 29.90R WESTFIELD MOSUNNY 68 56 65 VRB6 29.90R PROVINCETOWN SUNNY 66 10 11 SW10 29.88R NANTUCKET SUNNY 70 64 81 SW7 29.90R $$ ANZ330-335-338-340-345-350-353-355-021300- COASTAL MARINE OBSERVATIONS STATION/POSITION TIME SKY/WX TEMP WIND PRES VSBY WAVE AIR SEA DIR/SP/G HT/PER (UTC) (F) (DEG/KT/KT) (MB) (MI) (FT/S) NY HARB ENTRANCE 1150 70 69 320/ 4/ 4 1012.2 4/ 8 4S FIRE IS 1103 69 N/A 4/ 7 20S FIRE ISLAND 1150 69 67 CALM / 2 1012.1 4/ 8 GREAT SOUTH BAY 1130 70 74 270/ 2/ 2 N/A 23SW MTP 1150 68 67 290/ 4/ 6 1011.9 5/ 8 HUDSON CANYON NOT AVBL KINGS POINT 1100 68 66 CALM / 1 1011.6 CENTRAL LI SOUND NOT AVBL EASTERN LI SOUND 1100 66 63 10/ 2/ 4 N/A ROBBINS REEF 1100 71 350/ 7/ 8 1011.4 $$ >>>>>>>>>>>>>>>>>>>>>>>>>>>> KEY <<<<<<<<<<<<<<<<<<<<<<<<<<< > < > SKY/WX - SKY CONDITION/PRESENT WEATHER < > TMP - TEMPERATURE IN FAHRENHEIT < > DP - DEWPOINT IN FAHRENHEIT < > RH - RELATIVE HUMIDITY IN PERCENT < > WIND - DIRECTION AND SPEED IN MPH < > PRES - MEAN SEA LEVEL PRESSURE IN INCHES OF HG < > WCI - WIND CHILL INDEX < > VSB - VISIBILITY IN MILES < > HX - HEAT INDEX < > TC - TEMPERATURE IN CELSIUS < > VRB - VARIABLE WIND DIRECTION < > < >>>>>>>>>>>>>>>>>>>>>>>>>>>> KEY <<<<<<<<<<<<<<<<<<<<<<<<<<<

USA.gov is the U.S. government's official web portal to all federal, state and local government web resources and services.